Location: Waverly Hall
(32.6842°N, 84.7372°W)
Time: 22:30:31
(UTC+00:00)

Tiangong - Visible Passes

Search period start: 08 August 2022 00:00
Search period end: 18 August 2022 00:00
Orbit: 379 x 387 km, 41.5° (Epoch: 08 August)

Date Brightness Start Highest point End Pass type
(mag) Time Alt. Az. Time Alt. Az. Time Alt. Az.
08 Aug 1.2 08:16:36 13° NE 08:16:36 13° NE 08:17:20 10° NE visible
08 Aug -0.4 09:49:41 10° NW 09:52:36 33° NNE 09:55:30 10° E visible
09 Aug 0.1 08:51:56 23° N 08:52:15 23° NNE 08:54:52 10° ENE visible
09 Aug -2.2 10:26:08 10° WNW 10:29:17 76° SSW 10:32:26 10° SE visible
10 Aug -1.5 09:27:33 26° NW 09:29:04 55° NNE 09:32:10 10° ESE visible
11 Aug 1.0 08:31:14 13° E 08:31:14 13° E 08:31:39 10° E visible
11 Aug -1.5 10:03:30 16° W 10:05:34 36° SW 10:08:29 10° SE visible
12 Aug 0.1 09:07:33 18° SE 09:07:33 18° SE 09:08:32 10° SE visible
13 Aug -0.1 01:34:17 10° S 01:35:14 15° S 01:35:14 15° S visible
14 Aug -0.7 02:09:45 10° WSW 02:11:31 31° SW 02:11:31 31° SW visible
15 Aug -1.6 01:09:43 10° SW 01:12:38 37° SE 01:15:10 13° E visible
15 Aug 0.8 02:46:35 10° W 02:47:24 16° WNW 02:47:24 16° WNW visible
16 Aug -1.5 01:45:58 10° WSW 01:49:02 53° NNW 01:50:41 24° NE visible
17 Aug -2.2 00:45:35 10° WSW 00:48:42 78° SSE 00:51:49 10° ENE visible
17 Aug 0.1 02:23:09 10° WNW 02:25:43 23° NNW 02:25:51 22° N visible
